Beaver Island, MI

3:09 AM EDT on July 25, 2017 (GMT -0400)
Beaver Island

Weather History for KSJX - April, 2013

Change the Weather History Date:

Wednesday, April 24, 2013

  Actual Average Record
Temperature  
Mean Temperature 38 °F -  
Max Temperature 43 °F 53 °F 73 °F (2008)
Min Temperature 32 °F 33 °F 20 °F (2015)
Degree Days  
Heating Degree Days 28    
Moisture  
Dew Point 28 °F    
Average Humidity 73    
Maximum Humidity 93    
Minimum Humidity 50    
Precipitation  
Precipitation 0.00 in - - ()
Sea Level Pressure  
Sea Level Pressure 29.93 in    
Wind  
Wind Speed 7 mph (WNW)    
Max Wind Speed 15 mph    
Max Gust Speed 17 mph    
Visibility 10 miles    
Events      
Averages and records for this station are not official NWS values.
T = Trace of Precipitation, MM = Missing Value Source: NWS Daily Summary

Daily Weather History Graph

Daily Weather History Graph

Search for Another Location

Airport or City:

Trip Planner

Search our weather history database for the weather conditions in past years. The results will help you decide how hot, cold, wet, or windy it might be!

Date:

Astronomy

Apr. 24, 2013 Rise Set
Actual Time 6:40 AM EDT 8:40 PM EDT
Civil Twilight 6:08 AM EDT 9:13 PM EDT
Nautical Twilight 5:29 AM EDT 9:52 PM EDT
Astronomical Twilight 4:45 AM EDT 10:36 PM EDT
Moon 7:41 PM EDT (4/24) 5:47 AM EDT (4/24)
Length of Visible Light 15h 04m
Length of Day
14h 00m
Waxing Gibbous, 98% of the Moon is Illuminated
Apr 24
Waxing Gibbous
Apr 25
Full
May 2
Last Quarter
May 9
New
May 18
First Quarter

Hourly Weather History & Observations

Time (EDT) Temp. Windchill Dew Point Humidity Pressure Visibility Wind Dir Wind Speed Gust Speed Precip Events Conditions
12:17 AM 33.8 °F 27.0 °F 31.6 °F 92% 29.93 in 10.0 mi WNW 8.1 mph - N/A   Mostly Cloudy
12:37 AM 33.3 °F 26.4 °F 31.5 °F 93% 29.93 in 10.0 mi WNW 8.1 mph - N/A   Mostly Cloudy
12:57 AM 33.8 °F 26.4 °F 31.1 °F 90% 29.93 in 10.0 mi NW 9.2 mph 16.1 mph N/A   Overcast
1:17 AM 33.8 °F 27.0 °F 31.5 °F 91% 29.93 in 10.0 mi NW 8.1 mph 16.1 mph N/A   Overcast
1:36 AM 33.3 °F 27.9 °F 31.3 °F 92% 29.93 in 10.0 mi NW 5.8 mph - N/A   Scattered Clouds
1:57 AM 33.4 °F 26.6 °F 31.3 °F 92% 29.93 in 10.0 mi NW 8.1 mph - N/A   Scattered Clouds
2:17 AM 33.8 °F 29.6 °F 31.5 °F 91% 29.92 in 10.0 mi NW 4.6 mph - N/A   Mostly Cloudy
2:36 AM 33.8 °F 27.7 °F 31.1 °F 90% 29.92 in 10.0 mi NW 6.9 mph - N/A   Mostly Cloudy
2:57 AM 33.8 °F 27.7 °F 31.1 °F 90% 29.91 in 10.0 mi WNW 6.9 mph - N/A   Overcast
3:17 AM 33.8 °F 28.6 °F 30.6 °F 88% 29.91 in 10.0 mi NW 5.8 mph - N/A   Overcast
3:36 AM 33.6 °F 27.5 °F 30.6 °F 89% 29.91 in 10.0 mi NW 6.9 mph - N/A   Mostly Cloudy
3:57 AM 33.8 °F 27.7 °F 30.2 °F 87% 29.91 in 10.0 mi NW 6.9 mph - N/A   Mostly Cloudy
4:17 AM 33.3 °F 26.4 °F 30.0 °F 88% 29.91 in 10.0 mi NW 8.1 mph - N/A   Scattered Clouds
4:36 AM 32.9 °F 25.3 °F 29.8 °F 88% 29.91 in 10.0 mi NW 9.2 mph - N/A   Clear
4:57 AM 32.9 °F 27.5 °F 29.8 °F 88% 29.92 in 10.0 mi NW 5.8 mph - N/A   Clear
5:16 AM 32.9 °F 25.9 °F 29.8 °F 88% 29.91 in 10.0 mi NNW 8.1 mph - N/A   Clear
5:37 AM 32.9 °F 26.7 °F 29.3 °F 87% 29.92 in 10.0 mi NNW 6.9 mph - N/A   Scattered Clouds
5:56 AM 32.4 °F 26.9 °F 29.1 °F 88% 29.92 in 10.0 mi NNW 5.8 mph - N/A   Mostly Cloudy
6:17 AM 32.4 °F 26.0 °F 29.1 °F 88% 29.93 in 10.0 mi NNW 6.9 mph - N/A   Mostly Cloudy
6:37 AM 32.4 °F 27.9 °F 29.1 °F 88% 29.92 in 10.0 mi NNW 4.6 mph - N/A   Scattered Clouds
6:56 AM 32.4 °F 27.9 °F 29.3 °F 88% 29.93 in 10.0 mi NW 4.6 mph - N/A   Mostly Cloudy
7:17 AM 32.4 °F 27.9 °F 28.9 °F 87% 29.93 in 10.0 mi NNW 4.6 mph - N/A   Mostly Cloudy
7:36 AM 32.9 °F 26.7 °F 29.1 °F 86% 29.93 in 10.0 mi NNW 6.9 mph - N/A   Mostly Cloudy
7:57 AM 32.9 °F 26.7 °F 28.9 °F 85% 29.93 in 10.0 mi NNW 6.9 mph - N/A   Scattered Clouds
8:17 AM 32.9 °F 26.7 °F 28.9 °F 85% 29.93 in 10.0 mi NNW 6.9 mph - N/A   Clear
8:36 AM 33.4 °F 28.1 °F 29.3 °F 85% 29.93 in 10.0 mi NNW 5.8 mph - N/A   Scattered Clouds
8:57 AM 33.8 °F 28.6 °F 29.5 °F 84% 29.95 in 10.0 mi NNW 5.8 mph - N/A   Scattered Clouds
9:17 AM 34.5 °F 28.6 °F 29.7 °F 82% 29.94 in 10.0 mi NNW 6.9 mph - N/A   Scattered Clouds
9:36 AM 34.0 °F 28.0 °F 29.3 °F 83% 29.94 in 10.0 mi NNW 6.9 mph - N/A   Scattered Clouds
9:57 AM 34.7 °F 29.6 °F 30.2 °F 84% 29.94 in 10.0 mi NW 5.8 mph - N/A   Scattered Clouds
10:17 AM 35.6 °F 29.2 °F 30.6 °F 82% 29.94 in 10.0 mi NW 8.1 mph - N/A   Clear
10:36 AM 36.1 °F 31.4 °F 30.9 °F 81% 29.93 in 10.0 mi NNW 5.8 mph - N/A   Clear
10:57 AM 36.7 °F 32.0 °F 31.1 °F 80% 29.94 in 10.0 mi WNW 5.8 mph - N/A   Clear
11:16 AM 37.4 °F 34.9 °F 31.5 °F 79% 29.93 in 10.0 mi NNW 3.5 mph - N/A   Clear
11:37 AM 38.3 °F 33.9 °F 30.4 °F 73% 29.92 in 10.0 mi NNW 5.8 mph - N/A   Clear
11:57 AM 39.0 °F 35.7 °F 29.3 °F 68% 29.93 in 10.0 mi NNW 4.6 mph - N/A   Clear
12:16 PM 39.4 °F 33.8 °F 28.9 °F 66% 29.93 in 10.0 mi West 8.1 mph - N/A   Clear
12:37 PM 39.6 °F 34.7 °F 27.3 °F 62% 29.93 in 10.0 mi West 6.9 mph - N/A   Clear
12:57 PM 40.5 °F 36.5 °F 26.8 °F 58% 29.92 in 10.0 mi NW 5.8 mph - N/A   Clear
1:16 PM 41.0 °F 36.4 °F 25.5 °F 54% 29.92 in 10.0 mi NW 6.9 mph - N/A   Clear
1:37 PM 41.9 °F 37.5 °F 25.5 °F 52% 29.91 in 10.0 mi WNW 6.9 mph - N/A   Clear
1:57 PM 42.3 °F 37.3 °F 27.5 °F 56% 29.91 in 10.0 mi West 8.1 mph - N/A   Clear
2:17 PM 42.8 °F 37.5 °F 28.0 °F 56% 29.90 in 10.0 mi WSW 9.2 mph - N/A   Clear
2:37 PM 42.4 °F 36.1 °F 27.3 °F 55% 29.90 in 10.0 mi WSW 11.5 mph - N/A   Clear
2:56 PM 41.9 °F 36.3 °F 27.7 °F 57% 29.90 in 10.0 mi SW 9.2 mph - N/A   Clear
3:17 PM 42.8 °F 37.0 °F 28.8 °F 58% 29.90 in 10.0 mi WSW 10.4 mph - N/A   Clear
3:37 PM 42.4 °F 36.1 °F 27.7 °F 56% 29.91 in 10.0 mi WSW 11.5 mph - N/A   Clear
3:56 PM 43.0 °F 36.8 °F 27.3 °F 54% 29.91 in 10.0 mi WSW 11.5 mph - N/A   Clear
4:17 PM 42.8 °F 36.2 °F 27.0 °F 54% 29.91 in 10.0 mi SW 12.7 mph - N/A   Clear
4:37 PM 42.4 °F 36.1 °F 28.0 °F 57% 29.91 in 10.0 mi SW 11.5 mph - N/A   Clear
4:56 PM 42.4 °F 36.5 °F 27.1 °F 55% 29.91 in 10.0 mi SW 10.4 mph - N/A   Clear
5:17 PM 43.0 °F 37.2 °F 27.0 °F 53% 29.91 in 10.0 mi WSW 10.4 mph - N/A   Clear
5:37 PM 42.4 °F 37.0 °F 26.8 °F 54% 29.92 in 10.0 mi SW 9.2 mph - N/A   Clear
5:56 PM 41.4 °F 33.6 °F 25.0 °F 52% 29.92 in 10.0 mi SW 15.0 mph - N/A   Clear
6:17 PM 41.5 °F 34.2 °F 24.1 °F 50% 29.93 in 10.0 mi SW 13.8 mph 17.3 mph N/A   Clear
6:36 PM 41.2 °F 35.0 °F 23.5 °F 50% 29.93 in 10.0 mi SW 10.4 mph 16.1 mph N/A   Clear
6:57 PM 41.2 °F 34.5 °F 24.3 °F 51% 29.93 in 10.0 mi SW 11.5 mph 16.1 mph N/A   Clear
7:17 PM 40.5 °F 35.1 °F 25.7 °F 56% 29.93 in 10.0 mi SSW 8.1 mph - N/A   Clear
7:36 PM 39.7 °F 33.7 °F 25.5 °F 57% 29.93 in 10.0 mi SSW 9.2 mph - N/A   Clear
7:57 PM 39.2 °F 33.6 °F 25.3 °F 58% 29.93 in 10.0 mi SSW 8.1 mph - N/A   Clear
8:17 PM 38.7 °F 33.6 °F 23.9 °F 55% 29.94 in 10.0 mi SSW 6.9 mph - N/A   Clear
8:36 PM 38.1 °F 31.7 °F 24.1 °F 57% 29.95 in 10.0 mi SSW 9.2 mph - N/A   Clear
8:57 PM 36.7 °F 32.9 °F 25.9 °F 65% 29.95 in 10.0 mi SSW 4.6 mph - N/A   Clear
9:16 PM 35.8 °F 30.9 °F 26.4 °F 69% 29.96 in 10.0 mi SSW 5.8 mph - N/A   Clear
9:37 PM 35.6 °F 32.8 °F 26.6 °F 70% 29.97 in 10.0 mi SSW 3.5 mph - N/A   Clear
9:56 PM 35.6 °F - 27.5 °F 72% 29.97 in 10.0 mi Calm Calm - N/A   Clear
10:56 PM 34.3 °F 31.4 °F 25.5 °F 70% 29.97 in 10.0 mi SSE 3.5 mph - N/A   Clear
11:17 PM 35.8 °F 30.1 °F 27.1 °F 71% 29.97 in 10.0 mi South 6.9 mph - N/A   Clear
11:37 PM 36.3 °F 29.5 °F 27.9 °F 71% 29.96 in 10.0 mi South 9.2 mph - N/A   Clear
11:56 PM 36.5 °F 30.3 °F 28.4 °F 72% 29.96 in 10.0 mi South 8.1 mph - N/A   Clear